Location: ?astrovice
(49.6513°N, 14.9287°E)
Time: 16:54:10
(UTC+00:00)

Cosmos 1763 Rocket - Pass Details

Date: 09 April 2020
Orbit: 734 x 779 km, 74.0° (Epoch: 28 May)

Event Time Altitude Azimuth Distance (km) Brightness Sun altitude
Rises 19:41:44 0° 336° (NNW) 3,231 7.8 -17.8°
Reaches altitude 10° 19:44:08 10° 338° (NNW) 2,294 6.8 -18.2°
Maximum altitude 19:49:20 78° 65° (ENE) 770 3.4 -18.8°
Enters shadow 19:51:26 36° 147° (SSE) 1,163 3.9 -19.1°
